User: anonymous   Login
Location: Three Oaks Observatory
(31.1535°N, 83.5955°W)
Time: 09:41:31
(UTC-05:00)
Language:

PCSat - Orbit

View from above orbital plane
View from above orbital plane
View from above satellite
View from above satellite

Ground track
Ground track

The orbit data is extracted from the following two-line orbital elements,

1 26931U 01043C   19317.50856172 -.00000016  00000-0  25757-4 0  9992
2 26931  67.0517 342.2384 0007462 266.0065  94.0183 14.30558416946112
Epoch (UTC): 13 November 2019 12:12:19
Eccentricity: 0.0007462
inclination: 67.0517°
perigee height: 784 km
apogee height: 795 km
right ascension of ascending node: 342.2384°
argument of perigee: 266.0065°
revolutions per day: 14.30558416
mean anomaly at epoch: 94.0183°
orbit number at epoch: 94611

The dashed part of the orbit path shows where the satellite is in the earth's shadow,  

DLR